GFSFLT2_prec_pwat_105.txt.gz
Precipitable_Water
1.07 1.03 1.04 1.04 1.05 1.06 1.07 1.10 1.15 1.19 1.24 1.29 1.36 1.44 1.49 1.49 1.49 1.40 1.37 1.41 1.36 1.49 1.50 1.57 1.61 1.57 1.50 1.46 1.40 1.26 1.29 1.48
1.08 1.10 1.08 1.08 1.09 1.09 1.08 1.10 1.13 1.18 1.24 1.26 1.31 1.37 1.43 1.52 1.47 1.41 1.34 1.28 1.43 1.43 1.56 1.62 1.69 1.66 1.57 1.47 1.37 1.28 1.27 1.33
1.11 1.12 1.13 1.13 1.15 1.14 1.11 1.11 1.13 1.16 1.23 1.28 1.30 1.39 1.47 1.57 1.48 1.42 1.33 1.36 1.39 1.46 1.54 1.64 1.67 1.65 1.61 1.50 1.36 1.26 1.22 1.27
1.10 1.13 1.17 1.18 1.18 1.22 1.15 1.15 1.15 1.17 1.22 1.32 1.37 1.36 1.45 1.50 1.51 1.42 1.37 1.41 1.40 1.44 1.49 1.60 1.62 1.59 1.61 1.55 1.43 1.32 1.24 1.35
1.09 1.13 1.22 1.23 1.19 1.25 1.21 1.22 1.20 1.24 1.28 1.37 1.42 1.39 1.49 1.48 1.47 1.43 1.40 1.39 1.43 1.35 1.47 1.55 1.57 1.59 1.58 1.51 1.44 1.31 1.34 1.25
1.10 1.17 1.19 1.22 1.24 1.23 1.16 1.17 1.16 1.12 1.19 1.32 1.35 1.34 1.40 1.40 1.40 1.41 1.40 1.38 1.36 1.35 1.49 1.53 1.61 1.56 1.57 1.49 1.43 1.37 1.30 1.21
1.07 1.15 1.19 1.19 1.18 1.21 1.17 1.15 1.07 1.02 1.14 1.28 1.25 1.27 1.29 1.31 1.32 1.35 1.30 1.35 1.34 1.36 1.50 1.50 1.57 1.56 1.59 1.49 1.38 1.34 1.34 1.15
1.08 1.09 1.17 1.18 1.16 1.16 1.16 1.15 1.06 0.98 1.06 1.18 1.20 1.25 1.22 1.25 1.26 1.27 1.29 1.33 1.37 1.45 1.51 1.50 1.53 1.53 1.58 1.51 1.42 1.29 1.24 1.13
1.09 1.08 1.13 1.14 1.13 1.19 1.21 1.19 1.10 0.99 1.03 1.09 1.15 1.16 1.20 1.18 1.18 1.25 1.30 1.34 1.36 1.52 1.54 1.54 1.55 1.67 1.54 1.50 1.37 1.25 1.13 1.13
1.08 1.10 1.08 1.11 1.13 1.17 1.19 1.17 1.14 1.11 1.07 1.04 1.07 1.09 1.16 1.17 1.19 1.25 1.32 1.34 1.35 1.42 1.45 1.48 1.54 1.53 1.50 1.44 1.34 1.13 1.05 1.07
1.00 1.06 1.04 1.06 1.12 1.17 1.19 1.17 1.13 1.11 1.06 1.00 1.02 1.03 1.10 1.15 1.19 1.26 1.32 1.28 1.24 1.31 1.42 1.44 1.47 1.47 1.51 1.41 1.29 1.15 1.03 0.94
0.90 1.03 1.05 1.05 1.08 1.14 1.17 1.17 1.17 1.12 1.05 0.99 1.00 1.02 1.08 1.16 1.22 1.30 1.32 1.27 1.26 1.30 1.37 1.52 1.47 1.45 1.45 1.34 1.27 1.21 1.02 0.97
0.86 0.93 0.99 1.01 0.93 0.95 1.02 1.03 1.09 1.10 1.04 0.99 0.98 1.01 1.04 1.14 1.24 1.29 1.26 1.18 1.24 1.34 1.44 1.44 1.42 1.47 1.37 1.28 1.25 1.19 1.07 1.01
0.80 0.88 0.97 0.97 0.93 0.96 1.05 1.10 1.12 1.12 1.08 1.02 0.92 0.94 1.02 1.14 1.21 1.23 1.20 1.14 1.20 1.31 1.41 1.39 1.41 1.46 1.25 1.20 1.06 1.12 1.14 1.09
0.70 0.85 0.91 0.98 0.94 1.00 1.07 1.09 1.11 1.09 1.03 1.00 0.89 0.95 1.06 1.16 1.21 1.22 1.21 1.18 1.18 1.32 1.40 1.37 1.30 1.36 1.34 1.18 0.97 0.91 0.99 1.09
0.66 0.78 0.87 0.97 0.99 0.95 0.95 0.88 0.92 1.03 1.03 1.00 0.90 0.96 1.02 1.13 1.15 1.19 1.26 1.22 1.23 1.31 1.37 1.38 1.38 1.24 1.31 1.33 1.20 1.09 0.96 0.89
0.65 0.73 0.81 0.94 0.95 0.95 0.97 0.93 1.02 1.09 1.06 0.99 0.84 0.91 1.00 1.07 1.11 1.18 1.21 1.27 1.29 1.33 1.33 1.34 1.40 1.29 1.25 1.20 1.19 1.13 1.11 0.94
0.63 0.73 0.78 0.87 0.91 0.92 0.98 0.94 0.99 1.05 1.02 0.95 0.77 0.85 0.95 1.01 1.08 1.17 1.22 1.28 1.27 1.33 1.36 1.33 1.31 1.30 1.28 1.24 1.15 1.08 1.05 0.96
0.59 0.74 0.76 0.84 0.88 0.93 1.00 0.99 1.05 1.09 1.03 0.93 0.75 0.79 0.86 0.94 1.06 1.11 1.15 1.28 1.33 1.35 1.34 1.35 1.36 1.30 1.27 1.24 1.16 1.15 1.17 1.08
0.58 0.68 0.81 0.84 0.90 0.96 1.05 1.06 1.11 1.14 1.06 0.95 0.76 0.82 0.84 0.91 1.02 1.10 1.17 1.21 1.32 1.28 1.35 1.30 1.40 1.34 1.30 1.28 1.24 1.22 1.21 1.17

GFSFLT2_prec_pwat_108.txt.gz
Precipitable_Water
0.93 0.93 0.94 0.96 0.98 0.99 1.02 1.06 1.09 1.12 1.18 1.25 1.31 1.41 1.43 1.45 1.49 1.48 1.52 1.50 1.46 1.47 1.45 1.62 1.64 1.60 1.62 1.53 1.49 1.43 1.46 1.52
0.98 0.96 0.98 0.99 1.01 1.03 1.02 1.03 1.06 1.11 1.16 1.21 1.29 1.34 1.41 1.45 1.47 1.50 1.43 1.41 1.41 1.41 1.44 1.50 1.60 1.56 1.59 1.62 1.51 1.45 1.43 1.48
1.07 1.02 1.02 1.05 1.06 1.06 1.07 1.04 1.06 1.10 1.13 1.18 1.23 1.32 1.42 1.45 1.44 1.48 1.41 1.40 1.39 1.44 1.40 1.47 1.52 1.55 1.54 1.62 1.55 1.43 1.45 1.49
1.06 1.09 1.07 1.12 1.10 1.10 1.10 1.08 1.06 1.08 1.11 1.14 1.25 1.34 1.40 1.46 1.47 1.49 1.48 1.37 1.36 1.43 1.41 1.46 1.51 1.56 1.57 1.54 1.49 1.53 1.49 1.43
1.07 1.12 1.17 1.18 1.12 1.14 1.12 1.10 1.09 1.11 1.09 1.13 1.25 1.31 1.39 1.47 1.51 1.52 1.51 1.44 1.40 1.43 1.43 1.38 1.42 1.51 1.59 1.57 1.51 1.54 1.52 1.38
1.08 1.15 1.20 1.19 1.15 1.19 1.18 1.17 1.20 1.14 1.14 1.16 1.22 1.24 1.26 1.39 1.44 1.46 1.46 1.44 1.39 1.38 1.37 1.32 1.37 1.48 1.52 1.54 1.52 1.53 1.52 1.36
1.10 1.16 1.15 1.21 1.22 1.20 1.16 1.14 1.21 1.19 1.12 1.12 1.16 1.22 1.22 1.34 1.40 1.39 1.41 1.43 1.40 1.35 1.35 1.32 1.35 1.44 1.56 1.53 1.50 1.54 1.51 1.43
1.15 1.15 1.16 1.21 1.17 1.23 1.15 1.13 1.16 1.13 1.08 1.04 1.12 1.20 1.19 1.27 1.28 1.30 1.31 1.32 1.32 1.32 1.33 1.34 1.37 1.45 1.51 1.50 1.54 1.57 1.48 1.37
1.17 1.17 1.25 1.18 1.17 1.19 1.15 1.13 1.13 1.09 1.05 1.07 1.11 1.17 1.14 1.23 1.23 1.19 1.23 1.31 1.32 1.35 1.40 1.38 1.39 1.49 1.50 1.50 1.55 1.54 1.47 1.44
1.11 1.21 1.21 1.19 1.14 1.15 1.13 1.16 1.14 1.08 1.09 1.07 1.09 1.07 1.09 1.13 1.18 1.19 1.21 1.29 1.34 1.30 1.32 1.34 1.40 1.46 1.43 1.46 1.55 1.52 1.41 1.35
1.00 1.17 1.17 1.12 1.12 1.14 1.13 1.14 1.14 1.14 1.11 1.06 1.08 1.01 1.02 1.03 1.11 1.16 1.21 1.29 1.31 1.30 1.27 1.26 1.29 1.39 1.45 1.45 1.55 1.47 1.42 1.29
0.96 1.12 1.16 1.13 1.12 1.15 1.13 1.11 1.11 1.15 1.09 1.11 1.05 0.98 0.98 0.99 1.05 1.13 1.21 1.25 1.24 1.26 1.21 1.26 1.27 1.37 1.44 1.44 1.51 1.39 1.33 1.23
0.77 1.10 1.14 1.10 1.04 0.99 1.02 0.96 1.04 1.09 1.11 1.12 1.05 1.00 0.94 0.98 1.01 1.09 1.23 1.20 1.24 1.24 1.20 1.21 1.27 1.42 1.45 1.36 1.39 1.37 1.23 1.21
0.74 1.09 1.20 1.12 1.10 1.02 1.06 1.07 1.04 1.11 1.13 1.13 1.10 1.03 0.97 0.96 0.99 1.07 1.13 1.14 1.20 1.19 1.16 1.17 1.34 1.48 1.34 1.26 1.09 1.19 1.25 1.21
0.64 0.85 1.19 1.17 1.11 1.08 1.08 1.15 1.05 1.03 1.04 1.06 1.07 1.08 0.95 0.93 1.02 1.07 1.12 1.14 1.10 1.13 1.18 1.22 1.27 1.42 1.42 1.24 1.05 0.99 1.12 1.21
0.67 0.70 0.90 1.20 1.17 1.02 0.95 0.90 0.80 0.88 0.97 1.07 1.12 1.07 0.92 0.95 1.01 1.05 1.06 1.11 1.07 1.14 1.24 1.27 1.34 1.27 1.37 1.36 1.29 1.21 1.03 1.00
0.71 0.75 0.84 1.07 1.07 1.01 0.94 0.98 0.93 0.94 0.98 1.01 1.10 1.10 0.94 0.93 1.01 1.03 1.03 1.07 1.10 1.15 1.26 1.26 1.38 1.33 1.30 1.26 1.22 1.21 1.17 1.03
0.64 0.71 0.77 0.90 1.11 0.98 0.97 0.97 0.94 0.89 0.92 0.95 1.06 1.08 0.93 0.90 0.97 1.02 1.02 1.08 1.09 1.15 1.29 1.30 1.28 1.36 1.34 1.30 1.22 1.12 1.07 1.02
0.64 0.62 0.75 0.84 0.98 0.98 0.99 1.00 1.01 0.94 0.93 0.95 1.03 1.01 0.87 0.83 0.95 0.98 1.02 1.10 1.12 1.16 1.24 1.28 1.25 1.31 1.32 1.29 1.29 1.22 1.19 1.16
0.88 0.62 0.62 0.84 0.91 1.03 1.05 1.11 1.02 1.01 1.01 1.00 1.06 1.00 0.86 0.84 0.93 1.00 1.08 1.13 1.17 1.19 1.27 1.29 1.32 1.31 1.31 1.30 1.26 1.25 1.23 1.19

GFSFLT2_prec_pwat_111.txt.gz
Precipitable_Water
0.79 0.84 0.87 0.86 0.91 0.96 0.99 1.03 1.05 1.07 1.11 1.19 1.26 1.30 1.35 1.40 1.48 1.50 1.47 1.50 1.48 1.50 1.46 1.46 1.49 1.60 1.63 1.59 1.60 1.57 1.50 1.61
0.80 0.84 0.88 0.85 0.90 0.95 0.97 1.01 1.04 1.02 1.06 1.14 1.21 1.26 1.32 1.37 1.45 1.48 1.50 1.51 1.42 1.41 1.37 1.40 1.40 1.54 1.58 1.58 1.58 1.60 1.49 1.52
0.88 0.83 0.88 0.87 0.87 0.93 0.97 1.01 1.02 1.06 1.07 1.10 1.14 1.21 1.27 1.35 1.42 1.46 1.49 1.52 1.44 1.40 1.36 1.35 1.34 1.41 1.51 1.55 1.57 1.56 1.55 1.50
0.94 0.87 0.86 0.89 0.89 0.93 0.96 1.01 1.02 1.04 1.07 1.07 1.09 1.16 1.26 1.31 1.39 1.46 1.46 1.49 1.47 1.40 1.36 1.34 1.32 1.36 1.45 1.52 1.53 1.50 1.53 1.60
1.00 0.97 0.93 0.92 0.91 0.94 0.98 1.00 1.01 1.03 1.04 1.04 1.05 1.14 1.24 1.27 1.33 1.41 1.48 1.48 1.47 1.40 1.36 1.35 1.36 1.32 1.39 1.48 1.54 1.54 1.55 1.58
1.03 1.06 1.01 1.02 0.98 0.96 0.99 1.00 1.00 1.00 1.01 1.04 1.02 1.06 1.14 1.20 1.27 1.36 1.44 1.46 1.41 1.36 1.34 1.33 1.34 1.31 1.32 1.43 1.48 1.53 1.57 1.59
1.10 1.10 1.04 1.05 1.02 1.03 1.03 1.05 1.07 1.10 1.11 1.10 1.08 1.04 1.08 1.15 1.24 1.36 1.41 1.43 1.42 1.33 1.32 1.32 1.30 1.26 1.29 1.37 1.45 1.52 1.56 1.61
1.21 1.21 1.16 1.07 1.05 1.04 1.07 1.09 1.13 1.16 1.15 1.14 1.08 1.04 1.06 1.08 1.14 1.25 1.32 1.36 1.37 1.31 1.27 1.25 1.25 1.24 1.26 1.38 1.49 1.53 1.57 1.60
1.16 1.27 1.29 1.21 1.06 1.06 1.11 1.15 1.15 1.14 1.14 1.15 1.06 1.08 1.10 1.08 1.08 1.14 1.16 1.26 1.29 1.28 1.26 1.26 1.24 1.31 1.26 1.38 1.49 1.53 1.57 1.58
1.03 1.19 1.26 1.27 1.20 1.17 1.09 1.13 1.11 1.09 1.12 1.12 1.03 1.09 1.12 1.06 1.03 1.08 1.16 1.20 1.22 1.21 1.25 1.23 1.25 1.26 1.24 1.41 1.47 1.52 1.59 1.56
0.87 1.06 1.16 1.23 1.27 1.25 1.16 1.12 1.12 1.08 1.10 1.08 1.05 1.11 1.12 1.03 0.99 1.05 1.12 1.16 1.18 1.19 1.26 1.25 1.19 1.20 1.24 1.36 1.42 1.48 1.57 1.55
0.74 1.00 1.11 1.15 1.26 1.30 1.25 1.14 1.10 1.11 1.09 1.10 1.06 1.06 1.11 1.03 0.97 1.01 1.06 1.07 1.12 1.19 1.21 1.26 1.21 1.19 1.22 1.28 1.37 1.46 1.58 1.50
0.70 0.91 1.11 1.21 1.25 1.21 1.13 1.00 1.04 1.05 1.07 1.11 1.06 1.08 1.09 1.03 0.95 0.97 1.02 1.00 1.07 1.19 1.18 1.20 1.19 1.21 1.19 1.25 1.33 1.44 1.51 1.48
0.70 0.83 0.98 1.16 1.24 1.24 1.17 1.10 1.07 1.08 1.08 1.11 1.11 1.10 1.09 1.06 0.97 0.93 0.98 0.99 1.07 1.11 1.15 1.12 1.15 1.21 1.10 1.20 1.11 1.24 1.36 1.41
0.64 0.81 0.97 1.21 1.31 1.29 1.26 1.22 1.14 1.09 1.02 1.03 1.09 1.12 1.10 1.12 1.01 0.93 0.94 1.03 1.03 1.09 1.12 1.13 1.04 1.15 1.30 1.20 1.09 1.03 1.17 1.32
0.84 0.88 1.00 1.18 1.26 1.18 1.11 1.01 0.94 0.95 1.01 1.08 1.10 1.15 1.12 1.18 1.07 0.93 0.96 0.99 1.00 1.06 1.10 1.12 1.12 1.10 1.29 1.41 1.33 1.25 1.06 1.03
0.89 1.06 1.21 1.09 1.09 1.01 0.95 0.95 1.01 1.00 1.05 1.09 1.10 1.09 1.15 1.19 1.11 0.93 0.91 0.96 0.98 1.03 1.04 1.10 1.20 1.23 1.26 1.31 1.28 1.24 1.23 1.10
0.87 0.87 0.98 1.23 1.20 1.05 0.89 0.91 0.94 0.92 0.97 1.00 1.03 1.05 1.10 1.18 1.14 0.96 0.89 0.93 0.95 1.01 1.06 1.11 1.20 1.27 1.33 1.32 1.26 1.17 1.15 1.12
0.83 0.84 0.79 0.95 1.15 1.08 0.89 0.92 0.96 0.91 0.95 0.98 0.98 0.98 1.02 1.10 1.14 0.93 0.89 0.91 0.96 1.05 1.07 1.11 1.21 1.24 1.25 1.29 1.32 1.27 1.26 1.18
0.80 0.84 0.79 0.79 1.00 1.05 0.98 0.98 1.04 1.00 0.98 0.99 0.99 1.00 1.04 1.17 1.13 0.97 0.91 0.93 0.99 1.08 1.10 1.13 1.21 1.25 1.27 1.28 1.29 1.28 1.29 1.24

GFSFLT2_prec_pwat_114.txt.gz
Precipitable_Water
0.82 0.86 0.86 0.84 0.83 0.88 0.93 0.95 1.00 1.06 1.12 1.16 1.17 1.19 1.28 1.34 1.40 1.45 1.49 1.47 1.42 1.47 1.47 1.45 1.44 1.45 1.48 1.59 1.63 1.53 1.54 1.55
0.79 0.83 0.85 0.87 0.88 0.89 0.94 0.93 0.95 1.00 1.06 1.13 1.16 1.17 1.24 1.30 1.38 1.43 1.43 1.47 1.47 1.46 1.43 1.41 1.39 1.43 1.52 1.64 1.61 1.56 1.51 1.52
0.81 0.81 0.83 0.86 0.89 0.93 0.96 0.95 0.93 0.96 1.01 1.06 1.15 1.16 1.19 1.27 1.33 1.41 1.43 1.45 1.48 1.45 1.38 1.33 1.33 1.40 1.42 1.49 1.59 1.59 1.59 1.53
0.87 0.84 0.81 0.86 0.90 0.93 0.95 0.96 0.95 0.95 1.00 1.04 1.09 1.14 1.19 1.23 1.29 1.34 1.41 1.43 1.48 1.47 1.43 1.34 1.34 1.35 1.34 1.41 1.47 1.54 1.57 1.54
0.92 0.88 0.87 0.85 0.87 0.92 0.93 0.94 0.94 0.95 0.99 1.03 1.06 1.09 1.16 1.20 1.22 1.28 1.33 1.37 1.42 1.46 1.44 1.34 1.30 1.30 1.30 1.33 1.39 1.46 1.53 1.51
1.01 0.96 0.90 0.86 0.91 0.90 0.91 0.90 0.92 0.90 0.94 1.02 1.02 1.00 1.05 1.12 1.15 1.20 1.25 1.34 1.38 1.43 1.43 1.35 1.30 1.30 1.33 1.28 1.29 1.33 1.51 1.57
1.04 1.03 0.94 0.87 0.89 0.91 0.91 0.90 0.91 0.91 0.93 1.00 1.02 0.97 0.97 1.08 1.12 1.16 1.22 1.29 1.31 1.33 1.35 1.31 1.29 1.29 1.32 1.28 1.26 1.31 1.42 1.55
1.19 1.22 1.14 1.02 0.91 0.92 0.91 0.94 0.96 0.95 0.96 0.97 1.02 0.99 0.97 1.02 1.06 1.09 1.16 1.22 1.25 1.27 1.28 1.27 1.28 1.28 1.25 1.25 1.26 1.32 1.40 1.51
1.06 1.18 1.33 1.26 1.14 1.00 0.99 1.00 1.03 1.04 1.05 1.06 1.08 1.06 1.01 1.03 1.04 1.05 1.13 1.19 1.18 1.18 1.21 1.23 1.21 1.21 1.18 1.21 1.27 1.33 1.40 1.47
1.09 1.17 1.20 1.21 1.22 1.23 1.15 1.04 1.08 1.10 1.10 1.11 1.12 1.12 1.08 1.06 1.03 1.00 1.10 1.15 1.15 1.14 1.12 1.10 1.14 1.18 1.17 1.23 1.26 1.33 1.41 1.49
0.89 1.05 1.11 1.16 1.19 1.27 1.26 1.21 1.20 1.13 1.14 1.13 1.13 1.13 1.06 1.08 1.03 1.02 1.06 1.06 1.08 1.10 1.07 1.08 1.10 1.16 1.21 1.24 1.26 1.31 1.39 1.50
0.71 0.89 0.96 1.06 1.23 1.27 1.31 1.31 1.29 1.23 1.12 1.11 1.14 1.12 1.09 1.09 1.06 1.04 1.03 1.00 1.02 1.07 1.05 1.11 1.11 1.19 1.20 1.20 1.24 1.30 1.38 1.47
0.61 0.73 0.86 1.03 1.12 1.21 1.22 1.16 1.19 1.22 1.15 1.14 1.12 1.12 1.10 1.10 1.07 1.03 1.02 0.93 0.96 1.05 1.06 1.06 1.10 1.19 1.14 1.13 1.19 1.23 1.31 1.42
0.61 0.70 0.79 0.91 1.09 1.19 1.29 1.28 1.29 1.25 1.24 1.14 1.12 1.13 1.12 1.09 1.09 1.02 1.00 0.94 0.95 0.99 1.01 1.02 1.08 1.16 1.06 1.07 0.91 1.11 1.27 1.42
0.74 0.79 0.78 0.88 1.01 1.23 1.28 1.34 1.43 1.33 1.22 1.10 1.07 1.13 1.13 1.12 1.13 1.11 1.03 0.98 0.91 0.98 1.01 1.02 0.97 1.12 1.17 1.05 0.88 0.88 1.10 1.34
0.83 0.97 1.07 1.05 1.02 1.07 1.09 1.09 1.02 1.08 1.10 1.13 1.05 1.11 1.13 1.15 1.14 1.16 1.11 1.02 0.90 0.97 1.05 1.04 1.04 0.98 1.14 1.18 1.15 1.16 1.04 1.03
0.84 0.94 1.06 1.26 1.28 1.22 1.01 1.13 1.19 1.14 1.10 1.04 1.08 1.09 1.14 1.15 1.14 1.16 1.16 1.05 0.95 0.96 1.02 1.01 1.06 1.01 1.04 1.09 1.20 1.25 1.28 1.14
0.82 0.85 0.93 1.10 1.24 1.34 1.44 1.39 1.26 1.08 1.02 0.99 1.01 1.09 1.10 1.14 1.15 1.15 1.21 1.11 0.97 0.97 1.01 1.03 1.05 1.05 1.09 1.15 1.18 1.18 1.18 1.16
0.78 0.82 0.86 0.97 1.05 1.16 1.33 1.29 1.26 1.18 1.04 0.99 0.97 1.00 1.03 1.08 1.14 1.12 1.18 1.16 1.01 0.97 0.98 1.01 1.05 1.05 1.09 1.17 1.26 1.27 1.27 1.24
0.76 0.80 0.85 0.93 0.94 0.99 1.17 1.18 1.15 1.19 1.15 1.02 1.02 1.03 1.05 1.15 1.13 1.13 1.20 1.19 0.98 0.96 0.97 1.02 1.09 1.09 1.11 1.22 1.26 1.30 1.32 1.27

GFSFLT2_prec_pwat_117.txt.gz
Precipitable_Water
0.90 0.90 0.91 0.89 0.88 0.90 0.90 0.91 0.93 0.97 1.04 1.06 1.13 1.19 1.25 1.31 1.33 1.34 1.35 1.42 1.44 1.40 1.41 1.44 1.45 1.47 1.43 1.47 1.50 1.62 1.62 1.55
0.85 0.89 0.91 0.89 0.91 0.92 0.91 0.91 0.93 0.97 1.02 1.05 1.08 1.14 1.21 1.30 1.32 1.35 1.35 1.39 1.40 1.40 1.41 1.43 1.46 1.47 1.44 1.46 1.50 1.57 1.60 1.56
0.86 0.86 0.88 0.88 0.91 0.94 0.95 0.96 0.97 0.98 1.00 1.04 1.06 1.09 1.15 1.25 1.30 1.34 1.35 1.37 1.37 1.38 1.41 1.39 1.41 1.36 1.35 1.43 1.45 1.52 1.57 1.56
0.87 0.87 0.87 0.89 0.91 0.95 0.96 0.97 0.99 0.99 1.00 1.01 1.04 1.06 1.10 1.16 1.25 1.32 1.35 1.35 1.36 1.37 1.40 1.40 1.35 1.33 1.34 1.34 1.37 1.42 1.52 1.53
0.86 0.88 0.91 0.89 0.90 0.92 0.93 0.95 0.96 0.98 0.99 0.99 1.04 1.05 1.08 1.11 1.17 1.25 1.30 1.33 1.34 1.36 1.38 1.37 1.35 1.31 1.28 1.28 1.28 1.35 1.40 1.51
0.87 0.88 0.86 0.89 0.91 0.89 0.91 0.91 0.94 0.94 0.97 1.00 1.01 0.99 0.99 1.02 1.06 1.15 1.24 1.30 1.30 1.34 1.33 1.36 1.35 1.32 1.27 1.26 1.28 1.28 1.29 1.38
0.90 0.89 0.85 0.84 0.85 0.89 0.88 0.90 0.91 0.94 0.96 1.00 1.03 0.98 0.92 0.97 1.03 1.10 1.16 1.26 1.28 1.29 1.29 1.32 1.32 1.28 1.27 1.25 1.27 1.27 1.27 1.32
0.98 0.99 0.95 0.91 0.87 0.87 0.86 0.90 0.91 0.94 0.97 0.98 1.03 1.01 0.94 0.94 0.99 1.05 1.10 1.16 1.22 1.24 1.22 1.24 1.22 1.23 1.22 1.27 1.25 1.25 1.24 1.29
0.99 1.01 1.13 1.08 0.97 0.94 0.91 0.92 0.93 0.90 0.94 0.99 1.02 1.03 0.99 0.96 0.99 1.03 1.07 1.12 1.15 1.16 1.15 1.17 1.17 1.20 1.18 1.22 1.22 1.23 1.23 1.28
1.08 1.15 1.17 1.24 1.20 1.18 1.15 1.05 0.95 0.93 0.95 0.99 1.02 1.04 1.04 1.00 1.00 1.01 1.07 1.09 1.10 1.08 1.07 1.07 1.08 1.10 1.09 1.14 1.17 1.20 1.24 1.27
1.06 1.12 1.17 1.23 1.27 1.28 1.24 1.23 1.17 1.12 1.05 1.04 1.06 1.08 1.10 1.04 1.02 1.05 1.09 1.08 1.06 1.05 1.05 1.05 1.01 1.04 1.07 1.13 1.17 1.20 1.23 1.27
0.78 0.87 0.93 1.02 1.20 1.30 1.36 1.34 1.32 1.27 1.19 1.22 1.16 1.12 1.13 1.09 1.06 1.07 1.10 1.07 1.03 1.02 1.01 1.06 1.03 1.04 1.07 1.09 1.21 1.29 1.28 1.26
0.72 0.75 0.82 0.94 1.04 1.04 1.13 1.08 1.30 1.32 1.29 1.33 1.27 1.18 1.17 1.11 1.05 1.08 1.10 1.04 1.00 1.00 0.99 0.98 0.98 1.06 1.05 1.07 1.15 1.23 1.22 1.24
0.60 0.75 0.79 0.86 0.93 0.93 1.03 1.05 1.20 1.33 1.40 1.39 1.40 1.27 1.19 1.11 1.07 1.06 1.10 1.08 1.04 0.99 0.97 0.91 0.96 1.07 0.93 0.96 0.85 1.00 1.15 1.24
0.73 0.78 0.83 0.90 0.96 0.99 1.06 1.12 1.20 1.30 1.41 1.39 1.38 1.35 1.23 1.14 1.10 1.08 1.11 1.11 1.04 0.99 0.98 0.92 0.88 1.01 1.09 0.94 0.80 0.78 1.01 1.15
0.84 0.87 0.93 1.02 1.11 1.09 1.06 0.88 0.89 1.04 1.19 1.29 1.40 1.37 1.28 1.18 1.13 1.11 1.12 1.13 1.09 1.03 1.02 1.00 0.98 0.89 1.04 1.10 1.06 1.03 0.92 0.86
0.85 0.91 0.95 1.02 1.13 1.17 1.09 1.08 1.17 1.21 1.16 1.20 1.25 1.31 1.26 1.24 1.19 1.11 1.09 1.13 1.13 1.11 1.03 0.98 1.03 0.94 0.97 1.00 1.02 1.07 1.12 1.03
0.86 0.89 0.93 0.98 1.07 1.17 1.15 1.11 1.13 1.20 1.32 1.36 1.28 1.27 1.22 1.24 1.23 1.17 1.11 1.11 1.11 1.14 1.09 1.00 1.00 1.01 1.03 1.03 0.98 0.94 0.98 1.10
0.85 0.87 0.87 0.94 1.02 1.06 1.16 1.19 1.21 1.16 1.20 1.21 1.56 1.21 1.16 1.14 1.20 1.17 1.12 1.12 1.14 1.19 1.13 1.02 0.99 0.97 1.01 1.05 1.08 1.03 1.12 1.19
0.82 0.83 0.85 0.89 0.92 0.99 1.08 1.17 1.22 1.22 1.18 1.24 1.31 1.20 1.18 1.18 1.21 1.21 1.17 1.18 1.18 1.20 1.16 1.05 0.99 0.98 1.03 1.07 1.05 1.08 1.14 1.22